DELTA 1 DEB, 2224

Orbit data source: Space-Track

DELTA 1 DEB, 2224 is space debris in SSO originally from a launch on Mon, 28 Feb 1966 UTC launched from the Air Force Eastern Test Range (AFETR). Debris objects in space refer to the collection of defunct objects orbiting the Earth. Examples of debris include non-operational satellites, rocket bodies, and fragments generated from explosions, collisions, or faulty payload assembly.

Loading next visibility...
Identifier
2224, 1966-016D
Orbit
SSO
Country
Flag of USUS
Related business
Manufacturer
Unknown
Mission
Spacecraft
Bus & Motor
Unknown
Mass
1 kg wet, 1 kg dry
Launch date (UTC)
1966-02-28 (60 years ago)
Launch vehicle
Unknown
Launch site
Air Force Eastern Test Range (AFETR)
Object type
Payload
Rocket body
Debris
Shape & HBR
Unknown
Radar Cross Section
Small (<0.1 m²)

Expand to show TLE details & history
Last TLE update: 18 hours ago

TLE from 18 hours ago
0 DELTA 1 DEB
1 02224U 66016D   25300.05901836  .00000000  00000-0  26035-3 0  9990
2 02224 101.1400 229.0083 0137797 324.7243  47.4646 12.52166258716724
Epoch: 2025-10-27T01:24Z
TLE epoch observation values (Epoch: 2025-10-27T01:24:59.186Z)
Latitude
13.07798°
Longitude
169.48654°
Altitude
1,385.14 km
Speed
7.201 km/s
True Right ascension
15h 05m 35s
True Declination
13° 00' 31"
Sunlit
Object was in daylight at epoch
Visualization orbit readout
Latitude
Unknown
Longitude
Unknown
Altitude
Unknown
Speed
Unknown
Apparent Right ascension
Unknown
Apparent Declination
Unknown
Sunlit
N/A
Visualization observer readout
Local Sidereal Time
14:37:15
Azimuth
Unknown
Elevation
Unknown
Doppler factor
Unknown
Orbital elements
Apogee altitude
1,560.866 km
Perigee altitude
1,345.045 km
Semi-major axis
7,831.093 km
Eccentricity
0.01378
Inclination
101.14°
RAAN
229.0083°
Arg. of periapsis
324.7243°
True anomaly
48.64175°
Mean anomaly
47.4646°
Eccentric anomaly
48.0518°
Mean motion
3.13191 °/min
Orbital period
114.95 mins
BSTAR
0.00026035
Loading maneuver chart data...
Computing Atmospheric mass density...
Loading historical data...
Loading historical data...
Loading historical data...
Loading historical data...
Loading historical data...
Loading historical data...
Loading historical data...
Other satellites on launch #16 in the year 1966 (1966-02-28 UTC)

Documentation

Showing up to 5 results
|